Погода Бузаубай

Погода Бузаубай : погода сейчас, прогноз погоды и архив. Всё, что Вы хотите узнать о погоде Бузаубай!

Хотите узнать прогноз погоды Бузаубай? Тогда Вам сюда: Погода Бузаубай

Поиск расширенной информации на нашем сайте:

Другие новости

Новости СМИ2

Главная страница сайта

Новости сайта

02.10.2013

Напоминаем, что на нашем новом сайте вы можете получить высокодетализированные прогнозы погоды по пунктам России, СНГ и мира (включающие важные для авиации метеовеличины, такие как направление и скорость ветра, видимость, явления погоды, количество и форма облачности, нижняя и верхняя граница облачности), а также ознакомиться с разнообразными материалами по авиационной метеорологии и подборкой полезных ссылок на эту тему.

Сайт Метеоцентр.Азия посвящён разработке технологий оптимизации авиаметеорологического обслуживания, включая проектирование и перспективное создание нескольких автоматизированных авиаметеорологических систем:
- система выпуска высокодетальных прогностических карт явлений погоды для нижнего воздушного пространства по России и ближнему зарубежью;
- система верификации прогнозов TAF (выпускаемых синоптиками официальных АМСГ РФ и ближнего зарубежья) и AUTOTAF (выпускаемых сайтом Метеоцентр.Азия) - выявление ошибок, онлайн-сопоставление с фактической погодой METAR, автоматическое внесение коррективов в прогнозы при резком отклонении фактической погоды от прогноза, подсчёт оправдываемости прогнозов по элементам и в целом;
- система обработки, анализа и отображения авиаметеорологической информации для применения провайдерами метеорологической информации.


Погода Бузаубай - сегодня

Время (UTC), дата Ветер
(°,м/с) 
Видим.   Явления Облачность Т
(°С)
Тd
(°С)
f(%) Тe
(°С)
Pmin
(гПа)
dP
(гПа)
Po
(мм)
O2
(г/м3)
Тmin Tmax R s Состояние
почвы
03 22.04.17 тихо ()   10 км    ясно 
+11.5 +1.3 49 +12  1019.6  756  292           
06 22.04.17 тихо ()   10 км    ясно 
+20 +5.9 40 +20  1020.3  1.1  757  283  +10.1         
09 22.04.17 090 (В) 10 км    ясно 
+24.4 +8.4 36 +24  1019.3  -0.8  756  278           
12 22.04.17 090 (В) 10 км    3/0 верхняя 
[Ci fib]
+26.2 +8.2 32 +26  1017.9  -1.4  755  276           
15 22.04.17 090 (В) 10 км    6/0 верхняя 
[Ci ing]
+23 +6.4 34 +23  1017.7  -0.3  755  279    +26.2       
18 22.04.17 090 (В) н/о    4/0 средняя 
[Ac As]
+19 +4.5 38 +20  1017.6  -0.3  755  284    +26.2       
21 22.04.17 090 (В) н/о    6/0 средняя 
[Ac As]
+15.3 +1.7 40 +16  1018.2  0.5  755  288           
00 23.04.17 070 (В) н/о    8/0 средняя 
[Ac lent]
+12.5 +0.9 45 +12  1018.5  0.2  755  291           
03 23.04.17 тихо ()   10 км    3/0 верхняя 
[Ci fib]
+14.8 +4 48 +15  1019.8  1.4  756  288           
06 23.04.17 230 (ЮЗ) 10 км    ясно 
+22 +8.1 41 +22  1020.3  0.8  757  281  +12.5         
09 23.04.17 250 (З) 10 км    ясно 
+27.2 +10.5 35 +29  1020.7  0.5  757  276           
12 23.04.17 220 (ЮЗ) 10 км    4/0 верхняя 
[Ci fib]
+29 +10 31 +30  1020.1  -0.5  757  274           
15 23.04.17 040 (СВ) 10 км    5/0 верхняя 
[Ci fib]
+26.2 +8.8 33 +26  1018.5  -1.7  755  276    +29.9       
18 23.04.17 320 (СЗ) н/о    ясно 
+21 +5.8 37 +21  1018  -0.7  755  282    +29.9       
03 24.04.17 060 (СВ) 10 км    ясно 
+17.2 +6.5 49 +18  1015.4  -0.8  753  284           
06 24.04.17 090 (В) 10 км    ясно 
+28 +13.8 42 +35  1014.5  -0.5  753  272  +15         
09 24.04.17 070 (В) 10 км    ясно 
+31.6 -13.5 5 +32  1013.1  -1.4  752  272           
12 24.04.17 090 (В) 10 км    3/0 верхняя 
[Ci fib]
+32.5 +12.1 29 +37  1010.5  -2.4  750  268           
15 24.04.17 070 (В) 10 км    4/0 верхняя 
[Ci fib]
+29.3 +10.3 31 +31  1010.3  -0.4  749  271    +33.6       
18 24.04.17 020 (С) н/о    ясно 
+23.3 +6.7 34 +23  1011.1  0.6  750  277    +33.6       
21 24.04.17 тихо ()   н/о    4/0 средняя 
[Ac As]
+19 +4.5 38 +19  1011.9  0.6  750  282           
03 25.04.17 040 (СВ) 10 км    6/0 средняя 
[Ac As]
+18.4 +6.1 44 +20  1011.6  -0.7  750  282           
06 25.04.17 260 (З) 10 км    8/0 верхняя 
[Cs]
+26.7 +12.2 41 +31  1012  0.6  751  273  +16.5         
09 25.04.17 тихо ()   20000 м    6/0 верхняя 
[Ci ing]
+32.1 +13.1 32 +38  1011.4  -0.3  750  268           
12 25.04.17 270 (З) 10 км    9/0 верхняя 
[Cs]
+33.5 +12.7 28 +38  1010.7  -0.6  750  267           
Время (UTC), дата Ветер
(°,м/с) 
Видим.   Явления Облачность Т
(°С)
Тd
(°С)
f(%) Тe
(°С)
Pmin
(гПа)
dP
(гПа)
Po
(мм)
O2
(г/м3)
Тmin Tmax R s Состояние
почвы

Для получения пояснительной информации подведите курсор к названию столбца.

ПОГОДА Бузаубай - архив

Всё, что Вы хотите узнать о погоде Бузаубай - удобно и подробно!

Выберите нужную дату (начиная с 1 января 2015* года) и нажмите кнопку "Найти".
Будут отображены архивные сводки погоды по пункту Бузаубай, начиная с указанной даты.


Отображать данные в формате CSV (для использования в таблицах Excel)


Внимание! Наш архив погоды предназначен исключительно для личного некоммерческого использования в познавательных целях. Если Вам необходимы официальные справки о состоянии погоды (для производственных, юридических, коммерческих и т.п. целей), обращайтесь в органы Росгидромета.

*Примечание: данная дата относится к архиву по метеостанциям СССР (Россия, СНГ, Балтия).
Архив по метеостанциям Зарубежной Европы и Азии (кроме Китая) хранится 10 дней, по другим регионам земного шара (Китай, Африка, Америка, Австралия, Океания) - 1 день.

Бузаубай - район местоположения метеостанции


Название, широта, долгота, высота метеостанции:
Бузаубай 41.8°ш. 62.5°д. 98 м над ур. моря [Узбекистан]

Дополнительная информация

В oтличие oт бoльшинства пoгoдных сайтoв мы публикуем пoдрoбную метеoинфoрмацию в детальнoм прoфессиoнальнoм фoрмате.

Характеристики температуры и влажнoсти вoздуха измеряются на высoте 2 м в тени вдали oт зданий и деревьев.
Скoрoсть ветра измеряется на высoте 10 м (на урoвне рoста челoвека скoрoсть ветра ниже в 1.5-2 раза). Если метеoстанция нахoдится в гoрoде или в лесу, тo скoрoсть ветра занижена на 2-4 м/с пo сравнению с oткрытым местoм. Скoрoсть ветра над акватoриями крупных рек и oзёр, а также на вершинах хoлмoв на 2-5 м/с выше, чем в oбычных услoвиях.
Атмoсфернoе давление в разных тoчках местнoсти мoжет значительнo oтличаться oт давления на метеoстанции, в зависимoсти oт услoвий рельефа (при пoдъёме на 10 м давление пoнижается примернo на 1 мм рт.ст.).